Location: Bonaustraße
(48.4603°N, 11.9280°E)
Time: 02:41:42
(UTC+01:00)

Envisat - Pass Details

Date: 29 January 2021
Orbit: 764 x 766 km, 98.1° (Epoch: 05 March)

Event Time Altitude Azimuth Distance (km) Brightness Sun altitude
Rises 04:45:04 0° 27° (NNE) 3,243 6.7 -29.8°
Reaches altitude 10° 04:48:08 10° 47° (NE) 2,311 6.1 -29.3°
Maximum altitude 04:51:33 18° 89° (E) 1,818 5.7 -28.8°
Drops below altitude 10° 04:54:57 10° 132° (SE) 2,298 6.0 -28.2°
Sets 04:57:59 0° 151° (SSE) 3,218 6.5 -27.7°
